Location: Caltech
(34.1382°N, 118.1253°W)
Time: 18:22:02
(UTC-08:00)

KITSAT 1 - Visible Passes

Search period start: 28 November 2014 00:00
Search period end: 08 December 2014 00:00
Orbit: 1315 x 1316 km, 66.1° (Epoch: 27 November)

Date Brightness Start Highest point End Pass type
(mag) Time Alt. Az. Time Alt. Az. Time Alt. Az.
28 Nov 12.3 02:37:27 10° SE 02:42:31 18° ESE 02:47:35 10° ENE visible
28 Nov 10.1 04:28:55 10° SSW 04:36:59 78° WNW 04:45:05 10° NNE visible
29 Nov 11.7 02:55:18 24° SE 02:58:13 30° ESE 03:04:55 10° NE visible
29 Nov 10.3 04:47:33 20° SW 04:53:10 53° WNW 05:01:02 10° NNE visible
30 Nov 10.9 03:13:42 46° ESE 03:14:02 46° ESE 03:21:37 10° NE visible
30 Nov 10.7 05:05:50 25° W 05:09:30 36° NW 05:16:49 10° NNE visible
01 Dec 10.5 03:31:07 63° ENE 03:31:07 63° ENE 03:37:59 10° NNE visible
01 Dec 11.1 05:23:13 21° WNW 05:26:00 25° NW 05:32:25 10° N visible
02 Dec 12.6 01:56:01 11° ENE 01:56:01 11° ENE 01:56:28 10° ENE visible
02 Dec 10.5 03:48:04 55° NNE 03:48:04 55° NNE 03:54:07 10° NNE visible
02 Dec 11.4 05:40:08 15° WNW 05:42:41 17° NW 05:47:44 10° N visible
03 Dec 12.4 02:12:41 14° NE 02:12:41 14° NE 02:13:53 10° NE visible
03 Dec 10.8 04:04:43 41° N 04:04:43 41° N 04:10:05 10° NNE visible
03 Dec 11.7 05:56:48 10° NW 05:59:34 12° NW 06:02:21 10° NNW visible
04 Dec 12.3 02:29:08 16° NE 02:29:08 16° NE 02:30:37 10° NE visible
04 Dec 11.1 04:21:10 30° NNW 04:21:10 30° NNW 04:25:52 10° NNE visible
05 Dec 12.2 02:45:26 17° NE 02:45:26 17° NE 02:47:00 10° NNE visible
05 Dec 11.4 04:37:27 22° NNW 04:37:27 22° NNW 04:41:29 10° N visible
06 Dec 12.1 03:01:36 17° NNE 03:01:36 17° NNE 03:03:09 10° NNE visible
06 Dec 11.7 04:53:37 17° NNW 04:53:37 17° NNW 04:56:50 10° N visible
07 Dec 12.1 03:17:41 16° NNE 03:17:41 16° NNE 03:19:07 10° NNE visible
07 Dec 11.9 05:09:41 12° NNW 05:09:41 12° NNW 05:11:33 10° NNW visible
